AirNav   Air Wisconsin Airman Trainee
 
 753 users online  

MY72 Isle Private Airport
Isle, Minnesota, USA

GOING TO ISLE?


FAA INFORMATION EFFECTIVE 25 APRIL 2019

Location

FAA Identifier: MY72
Lat/Long: 46-09-34.8370N / 093-27-40.8510W
46-09.580617N / 093-27.680850W
46.1596769 / -93.4613475
(estimated)
Elevation: 1271 ft. / 387 m (estimated)
Variation: 03E (1985)
From city: 2 miles NE of ISLE, MN
Time zone: UTC -5 (UTC -6 during Standard Time)
Zip code: 56342

Airport Operations

Airport use: Private use. Permission required prior to landing
Activation date: 07/1956
Control tower: no
ARTCC: MINNEAPOLIS CENTER
FSS: PRINCETON FLIGHT SERVICE STATION
Attendance: UNATNDD
Wind indicator: yes
Segmented circle: no

Airport Communications

CTAF: 122.9
WX AWOS-3 at JMR (18 nm SE): 123.925 (320-679-1629)

Nearby radio navigation aids

NDB name  Hdg/Dist  Freq  Var  ID
MORA334/18.032700WJMR .--- -- .-.
AITKIN159/24.939700EAIT .- .. -
MOOSE LAKE238/31.336202EMZH -- --.. ....
RUSH CITY321/34.928202EROS .-. --- ...
PRINCETON007/36.236803EPNM .--. -. --
RIPLEY080/37.040403EXCR -..- -.-. .-.
CAMBRIDGE346/37.135001ECBG -.-. -... --.
LITTLE FALLS068/38.735903ELXL .-.. -..- .-..

Airport Services

Parking: tiedowns
Airframe service: NONE
Powerplant service: NONE
Bottled oxygen: NONE
Bulk oxygen: NONE

Runway Information

Runway 16/34

Dimensions: 2460 x 160 ft. / 750 x 49 m
Surface: turf, in fair condition
RUNWAY 16  RUNWAY 34
Traffic pattern: leftleft
Markings: nonenone
Runway end identifier lights: nono
Obstructions: 25 ft. trees, 50 ft. from runway, 130 ft. left of centerline, 2:1 slope to clear65 ft. trees, 800 ft. from runway, 225 ft. left of centerline, 10:1 slope to clear

Airport Ownership and Management from official FAA records

Ownership: Privately-owned
Owner: ISLE FLYING CLUB, INC.
HC69 BOX 239
ISLE, MN 56342
Manager: DAVE RETKA
ISLE, MN 56342
Phone 651-263-8614
ALSO: PAT MOENKHAUS 320-676-1910

Airport Operational Statistics

Aircraft based on the field: 8
Single engine airplanes: 8
    
Aircraft operations: avg 50/month *
83% local general aviation
17% transient general aviation
* for 12-month period ending 30 June 2016

Additional Remarks

FLYING CLUB MEMBERSHIP OR PERMISSION FROM A FLYING CLUB MEMBER IS REQUIRED TO LAND AT THE ISLE PRIVATE AIRPORT.

Instrument Procedures

There are no published instrument procedures at MY72.

Some nearby airports with instrument procedures:

KJMR - Mora Municipal Airport (18 nm SE)
04W - Field of Dreams Airport (25 nm E)
KAIT - Aitkin Municipal Airport-Steve Kurtz Field (25 nm N)
KHZX - Isedor Iverson Airport (28 nm N)
KMZH - Moose Lake Carlton County Airport (31 nm NE)
 
Loc | Ops | Rwys | IFR | FBO | Links
Com | Nav | Svcs | Stats | Notes
Area around MY72 (Isle Private Airport)
 
Road maps at: MapQuest Bing Google
 
Aerial photo
WARNING: Photo may not be current or correct
Aerial photo of MY72 (Isle Private Airport)
Photo by Dan Johnson
Photo taken 07-Nov-2018
looking northeast.

Do you have a better or more recent aerial photo of Isle Private Airport that you would like to share? If so, please send us your photo.

 
Sectional chart

 
Airport distance calculator
Flying to Isle Private Airport? Find the distance to fly.

From to MY72

Sunrise and sunset
Times for 25-Apr-2019
 Local
(UTC-5)
 Zulu
(UTC)
Morning civil twilight05:3810:38
Sunrise06:1111:11
Sunset20:1301:13
Evening civil twilight20:4501:45

Current date and time
Zulu (UTC)  26-Apr-2019 03:29:34
Local (UTC-5)  25-Apr-2019 22:29:34
 
METAR
KJMR 
18nm SE 
260315Z AUTO 30009KT 10SM CLR 10/M06 A2992 RMK AO2
KAIT 
24nm N 
260315Z AUTO 29006KT 10SM CLR 09/M07 A2990 RMK AO2
K04W 
25nm E 
260259Z AUTO 30009G16KT 10SM CLR 12/M06 A2989 RMK AO2
KHZX 
28nm N 
260316Z AUTO 30008KT 10SM CLR 10/M05 A2990 RMK AO2
KBRD 
31nm NW 
260253Z AUTO 30008KT 10SM CLR 11/M06 A2993 RMK AO2 SLP138 T01111061 51025
KMZH 
31nm NE 
260315Z AUTO 31008G18KT 10SM CLR 11/M03 A2987 RMK AO2
KROS 
35nm SE 
260315Z AUTO 30010G17KT 10SM BKN110 12/M05 A2991 RMK AO2 T01181051
KCBG 
36nm S 
260315Z AUTO 29016G21KT 10SM CLR 13/M01 A2993 RMK AO2
TAF
KBRD 
31nm NW 
251722Z 2518/2618 36009G16KT P6SM SKC FM252100 30014G22KT P6SM FEW150 FM252300 30015G22KT P6SM FEW250 FM260600 31006KT P6SM SKC FM261600 32010G17KT P6SM FEW250
NOTAMs
Click for the latest NOTAMs
NOTAMs are issued by the DoD/FAA and will open in a separate window not controlled by AirNav.

 

 
 

Would you like to see your business listed on this page?

 If your business provides an interesting product or service to pilots, flight crews, aircraft, or users of the Isle Private Airport, you should consider listing it here.  To start the listing process, click on the button below
 
Add a business
 

Other Pages about Isle Private Airport

Update a link
 
Copyright © AirNav, LLC. All rights reserved. Privacy Policy  Contact